G4CVN Weather Reports


Display with metric or nautical units.
time (UTC)temp
F
wind
direction
speed
MPH
gust
MPH
rain 1hr
in
rain 24hr
in
rain mn
in
humidity
%
barometer
mb
20260504050515 53 0.0 0.0 0.00 0.00 0.00 96 1016.3
20260504045515 53 0.0 1.0 0.00 0.00 0.00 96 1016.2
20260504044516 53 0.0 0.0 0.00 0.00 0.00 96 1016.2
20260504043515 53 0.0 1.0 0.00 0.00 0.00 96 1016.0
20260504042516 53 0.0 1.0 0.00 0.00 0.00 96 1016.0
20260504041516 53 0.0 1.0 0.00 0.00 0.00 95 1016.0
20260504040516 53 0.0 0.0 0.00 0.00 0.00 95 1016.0
20260504035535 53 0.0 1.0 0.00 0.00 0.00 95 1016.1
20260504034515 53 0.0 1.0 0.00 0.00 0.00 95 1016.1
20260504033516 53 0.0 0.0 0.00 0.00 0.00 95 1016.1
20260504032516 53 0.0 1.0 0.00 0.00 0.00 95 1016.1
20260504031535 53 0.0 1.0 0.00 0.00 0.00 95 1016.3
20260504030515 52 0.0 0.0 0.00 0.00 0.00 95 1016.1
20260504025516 52 0.0 1.0 0.00 0.00 0.00 95 1016.0
20260504024516 52 0.0 0.0 0.00 0.00 0.00 95 1016.0
20260504023516 52 0.0 1.0 0.00 0.00 0.00 95 1016.1
20260504022516 52 0.0 1.0 0.00 0.00 0.00 95 1016.1
20260504021535 52 0.0 1.0 0.00 0.00 0.00 95 1016.2
20260504020516 52 0.0 1.0 0.00 0.00 0.00 95 1016.0
20260504015536 52 0.0 2.0 0.00 0.00 0.00 95 1016.0
20260504014516 52 0.0 2.0 0.00 0.00 0.00 95 1016.0
20260504013536 52 0.0 2.0 0.00 0.00 0.00 95 1016.0
20260504012516 52 0.0 1.0 0.00 0.00 0.00 95 1016.0
20260504011515 52 0.0 1.0 0.00 0.00 0.00 95 1015.9
20260504010515 52 0.0 1.0 0.00 0.00 0.00 95 1016.0
20260504005516 52 0.0 1.0 0.00 0.00 0.00 95 1016.0
20260504004516 52 0.0 1.0 0.00 0.00 0.00 95 1015.9
20260504003516 52 203 1.0 2.0 0.00 0.00 0.00 95 1016.0
20260504002516 52 203 1.0 3.0 0.00 0.00 0.00 94 1015.9
20260504001515 53 203 1.0 2.0 0.00 0.00 0.00 94 1016.0
20260504000515 53 203 1.0 2.0 0.00 0.00 0.00 94 1015.9
20260503235516 53 203 1.0 3.0 0.00 0.00 0.00 94 1015.9
20260503234516 53 225 1.0 2.0 0.00 0.00 0.00 94 1015.9
20260503233516 53 225 1.0 2.0 0.00 0.00 0.00 94 1015.9
20260503232516 53 0.0 2.0 0.00 0.00 0.00 94 1015.9
20260503231516 53 0.0 2.0 0.00 0.00 0.00 94 1015.8
20260503230536 53 0.0 1.0 0.00 0.00 0.00 93 1015.8
20260503225516 53 0.0 2.0 0.00 0.00 0.00 93 1015.6
20260503224516 53 225 1.0 3.0 0.00 0.00 0.00 93 1015.6
20260503223516 53 0.0 0.0 0.00 0.00 0.00 92 1015.5
20260503222516 53 0.0 0.0 0.00 0.00 0.00 92 1015.5
20260503221515 53 0.0 0.0 0.00 0.00 0.00 91 1015.4
20260503220516 53 0.0 0.0 0.00 0.00 0.00 91 1015.4
20260503215535 54 0.0 0.0 0.00 0.00 0.00 91 1015.3
20260503214516 54 0.0 0.0 0.00 0.00 0.00 91 1015.2
20260503213556 54 0.0 0.0 0.00 0.00 0.00 91 1015.2
20260503212536 54 0.0 0.0 0.00 0.00 0.00 90 1015.1
20260503211516 55 0.0 0.0 0.00 0.00 0.00 90 1015.1
20260503210516 55 0.0 2.0 0.00 0.00 0.00 89 1014.9
20260503205516 55 0.0 2.0 0.00 0.00 0.00 89 1014.9
20260503204516 56 0.0 0.0 0.00 0.00 0.00 88 1014.7
20260503203516 56 0.0 0.0 0.00 0.00 0.00 88 1014.6
20260503202516 57 203 1.0 2.0 0.00 0.01 0.00 88 1014.6
20260503201516 57 0.0 1.0 0.00 0.01 0.00 87 1014.5
20260503200516 57 0.0 1.0 0.00 0.01 0.00 86 1014.3
20260503195516 58 0.0 2.0 0.00 0.01 0.00 86 1014.2
20260503194516 58 0.0 1.0 0.00 0.01 0.00 85 1014.0
20260503193516 58 180 1.0 4.0 0.00 0.01 0.00 85 1013.9
20260503192516 59 225 1.0 2.0 0.00 0.01 0.00 84 1013.8
20260503191536 59 248 1.0 3.0 0.00 0.01 0.00 83 1013.7
20260503190536 60 270 1.0 2.0 0.00 0.01 0.00 83 1013.6
20260503185516 60 203 2.0 3.0 0.00 0.01 0.00 81 1013.6
20260503184536 61 225 2.0 4.0 0.00 0.01 0.00 80 1013.6
20260503183516 62 203 2.0 5.0 0.00 0.01 0.00 78 1013.5
20260503182516 63 225 2.0 6.0 0.00 0.01 0.00 76 1013.3
20260503181516 64 203 2.0 4.0 0.00 0.01 0.00 73 1013.2
20260503180516 65 203 1.0 3.0 0.00 0.01 0.00 71 1013.1
20260503175516 66 0.0 3.0 0.00 0.01 0.00 69 1013.2
20260503174516 66 338 1.0 4.0 0.00 0.01 0.00 68 1013.0
20260503173516 65 0.0 2.0 0.00 0.01 0.00 71 1013.0
20260503172516 65 0.0 1.0 0.00 0.01 0.00 72 1013.0
20260503171516 64 203 1.0 4.0 0.00 0.01 0.00 72 1013.2
20260503170516 65 203 1.0 3.0 0.00 0.01 0.00 71 1013.2
20260503150516 66 248 1.0 3.0 0.00 0.13 0.00 66 1013.4
20260503130536 64 225 1.0 5.0 0.00 0.13 0.00 75 1013.5
20260503110516 64 203 1.0 4.0 0.00 0.13 0.00 75 1013.9
20260503080516 55 0.0 2.0 0.00 0.13 0.00 96 1014.1
20260503072516 54 203 1.0 3.0 0.00 0.13 0.00 96 1014.0
20260503071536 54 203 1.0 5.0 0.00 0.13 0.00 96 1014.0
20260503070516 55 225 1.0 2.0 0.00 0.13 0.00 96 1014.0